FW7611 Weather Reports


Display with metric or nautical units.
time (UTC)temp
F
wind
direction
speed
MPH
gust
MPH
rain 1hr
in
rain 24hr
in
rain mn
in
humidity
%
barometer
mb
20260904171552 95 250 1.0 2.0 0.00 0.00 0.00 50 1018.2
20260904170043 94 0 0.0 3.0 0.00 0.00 0.00 53 1018.4
20260904164553 95 332 1.0 4.0 0.00 0.00 0.00 53 1018.6
20260904163046 94 107 0.0 7.0 0.00 0.00 0.00 55 1018.8
20260904161545 93 254 2.0 4.0 0.00 0.00 0.00 57 1018.9
20260904160050 93 251 0.0 2.0 0.00 0.00 0.00 60 1019.1
20260904154552 92 259 1.0 2.0 0.00 0.00 0.00 59 1019.1
20260904153048 90 284 0.0 4.0 0.00 0.00 0.00 63 1019.1
20260904151546 90 190 1.0 2.0 0.00 0.00 0.00 64 1019.0
20260904150045 89 315 0.0 2.0 0.00 0.00 0.00 65 1019.2
20260904144540 87 303 1.0 2.0 0.00 0.00 0.00 67 1019.3
20260904143048 86 279 0.0 2.0 0.00 0.00 0.00 72 1019.2
20260904141547 85 304 0.0 2.0 0.00 0.00 0.00 73 1019.4
20260904140100 83 344 0.0 2.0 0.00 0.00 0.00 75 1019.4
20260904134543 82 167 0.0 2.0 0.00 0.00 0.00 79 1019.2
20260904133053 80 272 0.0 2.0 0.00 0.00 0.00 81 1019.2
20260904131548 79 207 0.0 2.0 0.00 0.00 0.00 84 1019.3
20260904130050 78 292 0.0 2.0 0.00 0.00 0.00 85 1019.6
20260904124558 77 0 0.0 0.0 0.00 0.00 0.00 87 1019.4
20260904123047 76 0 0.0 2.0 0.00 0.00 0.00 90 1019.5
20260904121547 74 0 0.0 0.0 0.00 0.00 0.00 93 1019.3
20260904120042 73 0 0.0 0.0 0.00 0.00 0.00 94 1019.3
20260904114549 73 0 0.0 0.0 0.00 0.00 0.00 94 1019.3
20260904113042 72 0 0.0 0.0 0.00 0.00 0.00 94 1019.1
20260904111551 72 0 0.0 0.0 0.00 0.00 0.00 94 1018.9
20260904110046 72 0 0.0 0.0 0.00 0.00 0.00 94 1018.8
20260904104542 72 0 0.0 0.0 0.00 0.00 0.00 93 1018.8
20260904103045 72 0 0.0 0.0 0.00 0.00 0.00 93 1018.6
20260904101549 73 0 0.0 0.0 0.00 0.00 0.00 93 1018.8
20260904100045 73 0 0.0 0.0 0.00 0.00 0.00 93 1018.8
20260904094543 73 0 0.0 0.0 0.00 0.00 0.00 92 1018.7
20260904093054 73 0 0.0 0.0 0.00 0.00 0.00 92 1018.7
20260904091545 74 0 0.0 0.0 0.00 0.00 0.00 91 1018.4
20260904090042 74 0 0.0 0.0 0.00 0.00 0.00 91 1018.1
20260904084548 74 0 0.0 0.0 0.00 0.00 0.00 90 1017.9